NVS-01 (IRNSS-1J)

Last updated on Mon Oct 20 2025 00:02:51 GMT+0000 (Coordinated Universal Time)

1 56759U 23076A 25292.29297067 -.00000341 00000+0 00000+0 0 9999 2 56759 2.7566 253.4448 0007005 348.0808 21.5542 1.00277618 8709
UTC large
Height (km)
Speed (km/s)
/
Latitude / Longitude
Inclination (degrees)
Orbital Period (minutes)
Azimuth
Elevation
Range (km)
Doppler Factor

Next 0 passes for location: London (51.5072 / 0.1276)

Sorry there are no passes over London.